Mönchengladbach Airport EDLN

Flugplatz Daten

Name: Mönchengladbach Airport

Ident: EDLN

Lat: 51,23027802

Long: 6,504444122

Platzhöhe: 125 ft

IataCode: MGL

City: Mönchengladbach

Metar

2022/08/14 06:20
EDLN 140620Z 10005KT CAVOK 21/15 Q1010

Taf

Gewünschte Webcam nicht vorhanden? Dann fügen Sie eine hinzu. Sie wird dann so schnell wie möglich freigeschaltet
Url: Title: